• In Schweiz
  • Länderverzeichnis
  • Für 7 Tage
  • Wassertemperatur
  • Satellitenkarten
  • Wetterkarte
  • Widgets
  • user-avatar
    Anmelden

    Stündliche Wetter Tafilah

    Heute, 23 Oktober, Dienstag

    Zeit Temperatur Niederschläge Wind Luftdruck Luftfeuchtigkeit
    00:00 +25°C° 0 mm 1 m/S 700 mmHg 32%
    01:00 +24°C° 0 mm 1 m/S 699 mmHg 32%
    02:00 +24°C° 0 mm 2 m/S 699 mmHg 29%
    03:00 +24°C° 0 mm 3 m/S 699 mmHg 29%
    04:00 +24°C° 0 mm 3 m/S 699 mmHg 29%
    05:00 +22°C° 0 mm 3 m/S 699 mmHg 29%
    06:00 +25°C° 0.1 mm 3 m/S 699 mmHg 27%
    07:00 +26°C° 0.1 mm 3 m/S 700 mmHg 25%
    08:00 +27°C° 0.1 mm 3 m/S 700 mmHg 24%
    09:00 +29°C° 0 mm 4 m/S 700 mmHg 21%
    10:00 +30°C° 0 mm 4 m/S 700 mmHg 19%
    11:00 +33°C° 0 mm 4 m/S 700 mmHg 16%
    12:00 +33°C° 0 mm 4 m/S 700 mmHg 16%
    13:00 +34°C° 0 mm 4 m/S 700 mmHg 15%
    14:00 +34°C° 0 mm 4 m/S 699 mmHg 15%
    15:00 +33°C° 0 mm 4 m/S 699 mmHg 16%
    16:00 +31°C° 0 mm 3 m/S 699 mmHg 17%
    17:00 +30°C° 0 mm 2 m/S 699 mmHg 19%
    18:00 +29°C° 0 mm 2 m/S 699 mmHg 20%
    19:00 +29°C° 0 mm 1 m/S 699 mmHg 21%
    20:00 +28°C° 0 mm 1 m/S 699 mmHg 22%
    21:00 +27°C° 0 mm 1 m/S 699 mmHg 22%
    22:00 +27°C° 0 mm 1 m/S 698 mmHg 23%
    23:00 +27°C° 0 mm 1 m/S 698 mmHg 23%

    Morgen, 24 Oktober, Mittwoch

    Zeit Temperatur Niederschläge Wind Luftdruck Luftfeuchtigkeit
    00:00 +26°C° 0 mm 1 m/S 698 mmHg 24%
    01:00 +26°C° 0 mm 1 m/S 698 mmHg 25%
    02:00 +25°C° 0 mm 1 m/S 697 mmHg 26%
    03:00 +25°C° 0 mm 1 m/S 697 mmHg 27%
    04:00 +24°C° 0 mm 1 m/S 697 mmHg 29%
    05:00 +24°C° 0 mm 1 m/S 697 mmHg 30%
    06:00 +25°C° 0 mm 1 m/S 697 mmHg 27%
    07:00 +26°C° 0 mm 1 m/S 698 mmHg 25%
    08:00 +27°C° 0 mm 1 m/S 698 mmHg 23%
    09:00 +29°C° 0 mm 2 m/S 698 mmHg 21%
    10:00 +30°C° 0 mm 3 m/S 698 mmHg 19%
    11:00 +32°C° 0 mm 4 m/S 698 mmHg 17%
    12:00 +32°C° 0 mm 5 m/S 697 mmHg 17%
    13:00 +33°C° 0 mm 5 m/S 697 mmHg 16%
    14:00 +33°C° 0 mm 6 m/S 697 mmHg 16%
    15:00 +32°C° 0 mm 5 m/S 696 mmHg 18%
    16:00 +30°C° 0 mm 4 m/S 696 mmHg 19%
    17:00 +29°C° 0 mm 3 m/S 696 mmHg 21%
    18:00 +28°C° 0 mm 3 m/S 696 mmHg 23%
    19:00 +27°C° 0 mm 2 m/S 696 mmHg 26%
    20:00 +26°C° 0 mm 2 m/S 697 mmHg 28%
    21:00 +26°C° 0 mm 2 m/S 696 mmHg 31%
    22:00 +25°C° 0 mm 2 m/S 696 mmHg 34%
    23:00 +25°C° 0 mm 1 m/S 696 mmHg 37%

    übermorgen, 25 Oktober, Donnerstag

    Zeit Temperatur Niederschläge Wind Luftdruck Luftfeuchtigkeit
    00:00 +24°C° 0 mm 1 m/S 696 mmHg 40%
    01:00 +24°C° 0 mm 2 m/S 696 mmHg 42%
    02:00 +24°C° 0 mm 2 m/S 695 mmHg 45%
    03:00 +23°C° 0 mm 2 m/S 695 mmHg 47%
    04:00 +23°C° 0 mm 2 m/S 695 mmHg 48%
    05:00 +23°C° 0 mm 2 m/S 695 mmHg 50%
    06:00 +24°C° 0 mm 2 m/S 695 mmHg 46%
    07:00 +25°C° 0 mm 3 m/S 696 mmHg 43%
    08:00 +26°C° 0 mm 3 m/S 696 mmHg 39%
    09:00 +27°C° 0 mm 4 m/S 696 mmHg 36%
    10:00 +28°C° 0 mm 5 m/S 696 mmHg 33%
    11:00 +29°C° 0 mm 6 m/S 696 mmHg 31%
    12:00 +29°C° 0.2 mm 7 m/S 696 mmHg 30%
    13:00 +31°C° 0.2 mm 8 m/S 695 mmHg 29%
    14:00 +31°C° 0.2 mm 9 m/S 695 mmHg 28%
    15:00 +28°C° 0.3 mm 8 m/S 695 mmHg 34%
    16:00 +27°C° 0.3 mm 7 m/S 695 mmHg 41%
    17:00 +24°C° 0.3 mm 6 m/S 695 mmHg 47%
    18:00 +23°C° 0.3 mm 6 m/S 695 mmHg 54%
    19:00 +22°C° 0.3 mm 5 m/S 696 mmHg 61%
    20:00 +21°C° 0.3 mm 4 m/S 696 mmHg 69%
    21:00 +20°C° 0 mm 4 m/S 697 mmHg 69%
    22:00 +20°C° 0 mm 4 m/S 697 mmHg 69%
    23:00 +19°C° 0 mm 4 m/S 697 mmHg 69%

    26 Oktober, Freitag

    Zeit Temperatur Niederschläge Wind Luftdruck Luftfeuchtigkeit
    00:00 +19°C° 0 mm 4 m/S 697 mmHg 70%
    01:00 +19°C° 0 mm 4 m/S 697 mmHg 71%
    02:00 +18°C° 0 mm 4 m/S 697 mmHg 72%
    03:00 +18°C° 0.1 mm 4 m/S 698 mmHg 73%
    04:00 +18°C° 0.1 mm 4 m/S 698 mmHg 74%
    05:00 +17°C° 0.1 mm 4 m/S 698 mmHg 75%
    06:00 +18°C° 0 mm 4 m/S 699 mmHg 72%
    07:00 +18°C° 0 mm 4 m/S 699 mmHg 69%
    08:00 +18°C° 0 mm 4 m/S 700 mmHg 66%
    09:00 +19°C° 0 mm 4 m/S 700 mmHg 59%
    10:00 +20°C° 0 mm 4 m/S 700 mmHg 52%
    11:00 +21°C° 0 mm 4 m/S 700 mmHg 45%
    12:00 +21°C° 0 mm 4 m/S 700 mmHg 41%
    13:00 +22°C° 0 mm 4 m/S 700 mmHg 37%
    14:00 +22°C° 0 mm 4 m/S 700 mmHg 34%
    15:00 +22°C° 0 mm 4 m/S 700 mmHg 35%
    16:00 +21°C° 0 mm 4 m/S 700 mmHg 36%
    17:00 +20°C° 0 mm 3 m/S 701 mmHg 37%
    18:00 +20°C° 0 mm 3 m/S 701 mmHg 40%
    19:00 +19°C° 0 mm 2 m/S 701 mmHg 43%
    20:00 +19°C° 0 mm 2 m/S 702 mmHg 46%
    21:00 +18°C° 0 mm 2 m/S 702 mmHg 48%
    22:00 +19°C° 0 mm 1 m/S 702 mmHg 50%
    23:00 +18°C° 0 mm 1 m/S 702 mmHg 53%

    27 Oktober, Samstag

    Zeit Temperatur Niederschläge Wind Luftdruck Luftfeuchtigkeit
    00:00 +18°C° 0 mm 1 m/S 702 mmHg 54%
    01:00 +16°C° 0 mm 1 m/S 702 mmHg 56%
    02:00 +16°C° 0 mm 1 m/S 702 mmHg 58%
    03:00 +16°C° 0 mm 1 m/S 702 mmHg 58%
    04:00 +15°C° 0 mm 1 m/S 702 mmHg 59%
    05:00 +15°C° 0 mm 1 m/S 702 mmHg 60%
    06:00 +16°C° 0 mm 1 m/S 702 mmHg 57%
    07:00 +17°C° 0 mm 2 m/S 703 mmHg 53%
    08:00 +18°C° 0 mm 2 m/S 703 mmHg 49%
    09:00 +19°C° 0 mm 2 m/S 703 mmHg 44%
    10:00 +21°C° 0 mm 2 m/S 703 mmHg 39%
    11:00 +23°C° 0 mm 2 m/S 703 mmHg 34%
    12:00 +24°C° 0 mm 2 m/S 702 mmHg 32%
    13:00 +24°C° 0 mm 2 m/S 702 mmHg 30%
    14:00 +25°C° 0 mm 3 m/S 702 mmHg 28%
    15:00 +25°C° 0 mm 3 m/S 702 mmHg 29%
    16:00 +24°C° 0 mm 3 m/S 702 mmHg 30%
    17:00 +24°C° 0 mm 3 m/S 702 mmHg 31%
    18:00 +22°C° 0 mm 3 m/S 702 mmHg 32%
    19:00 +22°C° 0 mm 3 m/S 702 mmHg 33%
    20:00 +21°C° 0 mm 3 m/S 702 mmHg 35%
    21:00 +21°C° 0 mm 3 m/S 702 mmHg 35%
    22:00 +21°C° 0 mm 3 m/S 702 mmHg 36%
    23:00 +20°C° 0 mm 3 m/S 702 mmHg 37%

    28 Oktober, Sonntag

    Zeit Temperatur Niederschläge Wind Luftdruck Luftfeuchtigkeit
    00:00 +20°C° 0 mm 3 m/S 701 mmHg 38%
    01:00 +20°C° 0 mm 3 m/S 701 mmHg 39%
    02:00 +19°C° 0 mm 3 m/S 701 mmHg 40%
    03:00 +19°C° 0 mm 3 m/S 701 mmHg 40%
    04:00 +19°C° 0 mm 3 m/S 701 mmHg 41%
    05:00 +18°C° 0 mm 3 m/S 701 mmHg 41%
    06:00 +19°C° 0 mm 4 m/S 701 mmHg 38%
    07:00 +20°C° 0 mm 4 m/S 702 mmHg 35%
    08:00 +21°C° 0 mm 5 m/S 702 mmHg 32%
    09:00 +22°C° 0 mm 5 m/S 702 mmHg 31%
    10:00 +23°C° 0 mm 5 m/S 702 mmHg 30%
    11:00 +26°C° 0 mm 5 m/S 701 mmHg 29%
    12:00 +26°C° 0 mm 5 m/S 701 mmHg 28%
    13:00 +27°C° 0 mm 5 m/S 700 mmHg 28%
    14:00 +28°C° 0 mm 5 m/S 700 mmHg 27%
    15:00 +27°C° 0 mm 5 m/S 700 mmHg 28%
    16:00 +27°C° 0 mm 4 m/S 700 mmHg 29%
    17:00 +26°C° 0 mm 4 m/S 700 mmHg 31%
    18:00 +25°C° 0 mm 4 m/S 700 mmHg 32%
    19:00 +25°C° 0 mm 4 m/S 700 mmHg 33%
    20:00 +23°C° 0 mm 4 m/S 700 mmHg 34%
    21:00 +22°C° 0 mm 4 m/S 700 mmHg 36%
    22:00 +22°C° 0 mm 4 m/S 700 mmHg 37%
    23:00 +21°C° 0 mm 3 m/S 700 mmHg 38%

    29 Oktober, Montag

    Zeit Temperatur Niederschläge Wind Luftdruck Luftfeuchtigkeit
    00:00 +21°C° 0 mm 3 m/S 699 mmHg 38%
    01:00 +20°C° 0 mm 3 m/S 699 mmHg 38%
    02:00 +20°C° 0 mm 3 m/S 699 mmHg 38%
    03:00 +19°C° 0 mm 3 m/S 699 mmHg 38%
    04:00 +19°C° 0 mm 3 m/S 699 mmHg 38%
    05:00 +19°C° 0 mm 3 m/S 699 mmHg 38%
    06:00 +19°C° 0 mm 3 m/S 699 mmHg 37%
    07:00 +20°C° 0 mm 3 m/S 699 mmHg 36%
    08:00 +21°C° 0 mm 3 m/S 699 mmHg 35%
    09:00 +22°C° 0 mm 3 m/S 699 mmHg 35%
    10:00 +24°C° 0 mm 3 m/S 699 mmHg 35%
    11:00 +25°C° 0 mm 3 m/S 699 mmHg 35%
    12:00 +25°C° 0 mm 3 m/S 699 mmHg 34%
    13:00 +26°C° 0 mm 3 m/S 698 mmHg 34%
    14:00 +26°C° 0 mm 3 m/S 698 mmHg 33%
    15:00 +26°C° 0 mm 3 m/S 698 mmHg 35%
    16:00 +25°C° 0 mm 3 m/S 698 mmHg 36%
    17:00 +25°C° 0 mm 3 m/S 698 mmHg 38%
    18:00 +24°C° 0 mm 2 m/S 698 mmHg 40%
    19:00 +24°C° 0 mm 2 m/S 698 mmHg 41%
    20:00 +23°C° 0 mm 2 m/S 699 mmHg 43%
    21:00 +23°C° 0 mm 2 m/S 699 mmHg 45%
    22:00 +21°C° 0 mm 2 m/S 699 mmHg 46%
    23:00 +21°C° 0 mm 2 m/S 699 mmHg 47%
    Mehr zeigen